CAPE
0 0 0 0 0 0 0 0 0 0 0 0 0 0 0 0 0 0 0 0 0 0 0 0 0 0 0 0 210 520 812 365 26 2 3 3 1 2 2 0 0 0 0 0
0 0 0 0 0 0 0 0 0 0 0 0 0 0 0 0 0 0 0 0 0 0 0 0 0 0 0 0 86 493 763 678 72 5 1 1 1 2 1 0 0 0 0 0
0 0 0 0 0 0 0 0 0 0 0 0 0 0 0 0 0 0 0 0 0 0 0 0 0 0 0 0 12 225 608 835 89 13 1 0 0 1 1 0 0 0 0 0
0 0 0 0 0 0 0 0 0 0 0 0 0 0 0 0 0 0 0 0 0 0 0 0 0 0 0 0 2 179 343 675 169 10 1 0 0 1 1 0 0 0 0 0
0 0 0 0 0 0 0 0 0 0 0 0 0 0 0 0 0 0 0 0 0 0 0 0 0 0 0 0 0 0 319 649 412 2 1 1 1 0 0 0 0 0 0 0
0 0 0 0 0 0 0 0 0 0 0 0 0 0 0 0 0 0 0 0 0 0 0 0 0 0 0 0 0 0 153 526 491 6 2 2 2 1 0 0 0 0 0 0
0 0 0 0 0 0 0 0 0 0 0 0 0 0 0 0 0 0 0 0 0 0 0 0 0 0 0 0 0 0 0 267 710 7 2 2 1 1 0 0 0 0 0 0
0 0 0 0 0 0 0 0 0 0 0 0 0 0 0 0 0 0 0 0 0 0 0 0 0 0 1 4 1 0 1 10 421 158 2 1 1 1 0 0 0 0 0 0
0 0 0 0 0 0 0 0 0 0 0 0 0 0 0 0 0 0 0 0 0 0 0 0 0 0 0 1 1 4 2 21 225 541 2 1 1 0 0 0 0 0 0 0
0 0 0 0 0 0 0 0 0 13 1 1 0 1 0 0 0 0 0 0 0 0 0 0 0 0 0 0 0 10 7 3 30 549 24 1 1 0 0 0 0 0 0 1
0 0 0 0 0 0 0 0 0 0 1 1 0 0 0 0 0 0 0 0 0 0 0 0 0 0 0 0 0 0 9 0 0 112 1 0 1 0 0 0 1 1 2 2
0 0 0 0 0 0 0 0 0 0 0 2 0 0 0 0 0 0 0 0 0 0 0 0 0 0 0 0 0 0 0 0 0 0 1 2 1 1 1 1 2 2 2 1
0 0 0 0 0 3 7 3 8 0 0 0 0 0 0 0 0 0 0 0 0 0 2 0 16 2 2 0 0 0 0 0 0 1 0 1 1 3 3 3 2 1 1 1
0 0 0 0 0 0 0 0 10 0 0 0 0 1 0 0 0 0 0 0 0 17 1 0 19 5 0 0 0 0 0 0 0 1 0 1 3 4 4 3 2 1 1 2
0 0 0 0 0 0 0 0 11 1 0 4 0 0 0 0 0 0 0 0 0 0 0 0 21 17 1 0 0 0 0 0 0 0 2 3 3 3 3 2 2 2 2 2
7 0 0 0 0 0 0 0 0 0 0 0 0 0 0 0 0 2 4 2 0 0 15 37 29 3 8 0 0 0 0 1 1 0 1 2 2 2 2 2 2 2 2 2
1 1 0 0 0 0 0 0 0 0 0 0 0 0 0 0 3 15 7 3 10 5 0 0 3 4 19 1 1 1 0 3 2 0 0 0 0 1 2 1 2 2 2 2
6 5 8 2 0 0 0 0 0 0 0 0 0 0 0 0 0 12 6 8 0 0 1 3 7 9 15 2 3 0 0 3 2 1 1 1 1 2 2 2 1 2 2 2
5 9 0 0 0 0 0 0 0 0 0 0 0 0 7 0 0 1 3 0 0 4 1 1 3 7 10 6 1 0 1 2 4 3 2 2 1 2 3 1 1 1 2 2
5 1 1 1 0 0 0 0 0 0 0 0 0 0 0 0 0 0 0 0 0 0 1 1 4 5 11 8 1 0 0 2 4 3 1 1 2 2 3 1 1 1 2 2
3 10 2 1 1 0 0 0 0 0 0 0 0 0 0 0 0 0 0 0 0 1 2 2 6 9 3 1 0 0 0 2 0 1 2 2 3 3 1 1 1 2 3 4
0 0 0 0 3 0 0 0 0 0 0 0 0 0 0 0 0 0 0 0 0 2 10 0 3 0 1 1 2 1 2 1 0 1 1 2 2 2 1 1 2 2 2 2
0 0 0 0 0 0 0 0 0 0 0 0 0 0 0 0 0 0 0 0 1 11 0 2 2 1 1 0 1 2 1 0 0 0 1 2 2 2 2 2 3 2 1 3
0 0 0 0 0 0 0 0 0 0 0 0 0 0 0 0 0 0 0 0 6 1 0 1 4 3 1 0 1 1 0 0 1 1 1 2 2 3 2 3 3 2 2 3
0 0 0 0 0 0 0 0 0 0 0 0 0 0 0 0 0 0 0 1 21 0 0 2 2 2 0 1 1 1 0 0 0 1 2 2 3 3 3 3 3 3 1 2
0 0 0 0 0 0 0 0 0 0 0 0 0 0 0 0 0 0 1 6 4 0 0 2 4 4 2 1 1 1 1 0 0 2 2 1 3 3 4 2 0 0 0 0
CIN
0 0 0 0 0 0 0 0 0 0 0 0 0 0 0 0 0 0 0 0 0 0 0 0 0 0 0 -1 -330 -240 -150 -375 -571 0 0 0 0 0 0 0 0 0 0 0
0 0 0 0 0 0 0 0 0 0 0 0 0 0 0 0 0 0 0 0 0 0 0 0 0 0 0 0 -384 -257 -155 -183 -600 -659 0 0 0 0 0 0 0 0 0 0
0 0 0 0 0 0 0 0 0 0 0 0 0 0 0 0 0 0 0 0 0 0 0 0 0 0 0 0 -331 -300 -204 -169 -626 -652 0 0 0 0 0 0 0 0 0 0
0 0 0 0 0 0 0 0 0 0 0 0 0 0 0 0 0 0 0 0 0 0 0 0 0 0 0 0 -73 -339 -211 -105 -501 -805 0 0 0 0 0 0 0 0 0 0
0 0 0 0 0 0 0 0 0 0 0 0 0 0 0 0 0 0 0 0 0 0 0 0 0 0 0 0 0 0 -256 -106 -302 -640 0 0 0 0 0 0 0 0 0 0
0 0 0 0 0 0 0 0 0 0 0 0 0 0 0 0 0 0 0 0 0 0 0 0 0 0 0 0 0 0 -343 -105 -200 -734 0 0 0 0 0 0 0 0 0 0
0 0 0 0 0 0 0 0 0 0 0 0 0 0 0 0 0 0 0 0 0 0 0 0 0 0 0 0 0 0 0 -185 -45 -533 0 0 0 0 0 0 0 0 0 0
0 0 0 0 0 0 0 0 0 0 0 0 0 0 0 0 0 0 0 0 0 0 0 0 0 0 -3 -2 -1 -1 -1 -399 -60 -292 0 0 0 0 0 0 0 0 0 0
0 0 0 0 0 0 0 0 0 0 0 0 0 0 0 0 0 0 0 0 0 0 0 0 0 0 0 -2 -2 -1 -1 -26 -102 -34 -300 0 0 0 0 0 0 0 0 0
0 0 0 0 0 0 0 0 0 -2 0 -1 -2 -3 0 0 0 0 0 0 0 0 0 0 0 0 0 0 0 -2 -2 -4 -61 -19 -338 0 0 0 0 0 0 0 0 0
0 0 0 0 0 0 0 0 0 0 -1 0 0 0 0 0 0 0 0 0 0 0 0 0 0 0 0 0 0 -4 -10 0 0 -98 0 0 0 0 0 0 0 0 0 0
0 0 0 0 0 0 0 0 0 -1 0 -1 0 0 0 0 0 0 0 0 0 0 0 0 0 0 0 0 0 0 0 0 0 0 0 0 0 0 0 0 0 0 0 0
0 0 0 0 0 -1 0 0 -5 0 0 0 0 0 0 0 0 0 0 0 0 0 -34 0 -140 -36 -50 -12 0 0 0 0 0 0 0 0 0 0 0 0 0 0 0 0
0 0 0 0 0 0 0 0 -1 0 0 0 0 -1 0 0 0 0 0 0 0 -99 -77 -2 -3 -1 0 0 0 0 0 0 0 0 0 0 0 0 0 0 0 0 0 0
0 0 0 0 0 0 0 0 -3 -1 0 -2 0 0 0 0 0 0 0 0 0 0 0 -2 -3 -2 -1 0 0 0 0 0 0 0 0 0 0 0 0 0 0 0 0 0
-1 0 0 0 0 0 0 0 0 0 0 0 0 0 0 0 0 -4 -1 -2 0 0 -61 -61 -20 -2 -1 0 0 0 0 0 0 0 0 0 0 0 0 0 0 0 0 0
-1 0 0 0 -1 0 0 0 0 0 0 0 0 0 0 0 -4 -2 -2 -2 -2 -2 0 0 -2 -2 -1 0 0 0 -1 0 0 0 0 0 0 0 0 0 0 0 0 0
0 0 0 -1 0 0 0 0 0 0 0 0 0 0 0 0 0 -2 -3 -4 0 0 -3 -1 0 0 -1 -1 -1 -1 0 0 0 0 0 0 0 0 0 0 0 0 0 0
-1 -1 -1 -1 -2 0 0 0 0 0 0 0 0 0 -3 0 0 -4 -6 -1 0 -2 0 0 0 0 -1 -1 0 0 0 0 0 0 0 0 0 0 0 0 0 0 0 0
-3 -3 -2 -2 0 0 0 0 0 0 0 0 0 0 0 0 0 0 0 0 0 0 0 0 0 0 -1 0 0 0 0 0 0 0 0 0 0 0 0 0 0 0 0 0
-1 -1 -1 -4 -2 0 0 0 0 0 0 0 0 0 0 0 0 0 0 0 0 0 0 -1 0 0 0 0 0 0 0 0 0 0 0 0 0 0 0 0 0 0 0 0
0 0 0 0 -1 -1 0 0 0 0 0 0 0 0 0 0 0 0 0 0 0 0 -1 0 0 0 0 0 0 0 0 0 0 0 0 0 0 0 0 0 0 0 0 0
0 0 0 0 0 0 0 0 0 0 0 0 0 0 0 0 0 0 0 0 0 0 0 0 0 0 0 0 0 0 0 0 0 0 0 0 0 0 0 0 0 0 0 0
0 0 0 0 0 0 0 0 0 0 0 0 0 0 0 0 0 0 0 0 -41 -1 0 0 0 0 0 0 0 0 0 0 0 0 0 0 0 0 0 0 0 0 0 0
0 0 0 0 0 0 0 0 0 0 0 0 0 0 0 0 0 0 0 0 -4 0 0 0 0 0 0 0 0 0 0 0 0 0 0 0 0 0 0 0 0 0 0 0
0 0 0 0 0 0 0 0 0 0 0 0 0 0 0 0 0 0 0 -4 0 0 0 0 0 0 0 0 0 0 0 0 0 0 0 0 0 0 0 0 0 0 0 0
Wind_Speed
15 19 21 19 17 23 30 31 34 31 33 39 40 46 50 39 39 39 36 31 34 36 36 35 34 32 29 26 17 15 16 16 15 16 18 19 22 22 22 22 21 20 18 17
21 28 23 24 25 23 23 27 31 30 25 32 40 53 52 46 33 27 34 33 34 33 33 35 35 32 31 30 26 20 19 19 19 19 19 19 21 23 23 22 22 22 21 20
24 24 18 20 21 23 23 26 29 36 36 32 37 57 43 17 29 28 34 31 27 33 38 41 41 39 38 36 32 28 23 20 21 21 20 20 18 22 25 25 24 24 23 22
32 30 28 27 28 25 31 26 29 31 33 37 27 51 61 25 27 36 30 30 35 40 43 45 46 46 46 43 40 36 32 28 24 22 23 24 25 28 29 29 27 26 25 24
28 25 24 27 29 25 31 24 25 27 32 39 29 32 36 44 47 37 37 40 42 44 44 45 45 46 45 44 44 42 37 32 27 25 26 26 27 28 29 30 30 28 26 25
29 22 23 25 23 18 19 24 26 28 30 40 35 31 38 49 45 39 39 41 44 47 46 45 44 44 45 46 48 46 43 39 31 29 29 30 30 28 29 32 33 32 28 27
22 25 23 21 23 21 23 27 33 35 33 40 29 33 36 46 42 42 44 46 47 46 47 47 47 48 48 49 49 49 48 46 38 37 33 32 33 32 32 32 34 34 31 29
24 28 22 22 24 24 22 25 34 43 43 43 41 42 40 37 36 39 45 49 50 49 49 49 48 49 50 52 52 53 53 52 46 39 37 35 33 34 34 31 32 34 35 31
26 27 19 20 20 21 25 31 28 38 43 48 43 41 40 30 39 43 48 48 50 52 52 52 49 49 49 52 53 54 54 54 47 40 38 35 33 31 31 32 31 33 33 30
24 29 23 21 21 23 27 23 34 31 45 50 43 41 40 43 46 41 48 49 49 49 52 53 51 49 49 49 51 52 52 52 49 40 32 29 30 29 30 29 30 31 30 29
21 27 26 25 28 31 29 33 30 32 35 47 53 48 35 42 45 50 52 52 51 50 50 50 53 53 52 49 47 49 49 49 46 31 26 25 24 28 28 28 27 26 28 28
22 26 32 32 29 30 30 30 29 37 38 37 41 53 43 42 42 45 48 50 49 50 50 49 50 51 51 49 46 46 44 46 42 30 23 23 25 25 25 26 25 23 24 26
20 27 33 28 27 24 27 25 25 28 33 43 49 48 40 41 45 45 47 48 49 48 48 50 49 49 50 49 48 46 44 44 41 32 26 26 25 24 23 22 21 20 20 21
17 25 32 40 35 31 34 31 27 30 41 45 46 49 46 44 45 44 47 48 46 47 49 50 50 49 48 49 50 47 44 40 35 26 20 22 24 21 21 20 19 19 20 21
20 31 32 36 36 34 36 37 34 37 39 44 49 49 45 44 43 43 45 49 50 50 51 51 51 51 50 49 49 46 45 11 12 27 14 18 18 18 17 17 17 18 19 19
21 32 32 40 36 36 40 37 36 36 38 41 42 45 38 38 45 46 46 46 48 49 50 50 52 53 52 50 50 47 41 18 4 4 17 13 15 14 16 15 15 16 16 16
23 29 33 44 34 35 45 37 37 35 32 34 41 40 42 43 43 42 44 46 44 47 50 55 56 54 49 48 48 46 37 15 13 5 20 12 9 16 16 13 12 13 13 13
23 24 27 36 31 47 35 24 26 29 31 31 34 37 40 39 39 38 37 36 47 53 54 57 53 50 47 46 45 41 30 12 18 8 6 6 11 10 8 9 11 12 12 12
16 19 29 34 36 37 36 28 26 28 33 33 33 31 29 36 38 32 37 41 37 41 53 52 49 47 45 43 41 37 30 22 13 10 8 6 9 6 3 7 9 12 11 11
17 18 24 27 35 40 28 17 20 23 38 21 25 29 37 39 39 37 42 47 48 48 42 45 48 44 42 40 38 36 31 27 19 9 4 4 5 6 12 14 14 12 10 8
20 22 28 29 32 32 22 23 18 29 29 24 30 34 36 37 33 40 42 42 46 44 43 44 40 39 39 37 36 36 33 27 21 8 1 1 3 4 5 6 6 7 7 9
22 25 26 27 32 38 22 17 22 24 23 32 33 34 37 39 42 41 44 46 45 45 41 40 36 34 34 34 35 36 34 25 21 10 4 4 1 2 4 6 6 6 6 7
26 21 24 22 25 19 19 18 20 22 27 34 37 36 36 42 39 39 41 42 39 39 41 37 35 33 31 31 32 33 31 24 11 8 6 4 1 1 4 6 6 6 6 7
16 17 22 25 22 22 22 21 24 25 27 30 34 36 42 40 39 39 42 40 37 36 34 33 31 31 32 30 29 29 26 20 13 8 7 5 3 2 2 3 5 6 6 6
15 19 22 26 25 32 25 26 26 24 26 30 31 41 40 39 39 38 37 35 32 32 32 31 30 29 27 27 24 22 20 12 12 13 6 4 4 3 2 4 4 6 7 5
20 24 24 26 27 32 32 31 32 32 32 37 28 44 40 38 36 36 34 29 22 25 26 27 22 24 25 22 21 17 14 12 8 10 5 11 8 5 6 6 7 8 8 8
Wind_Direction
292 290 287 292 289 299 304 304 304 310 312 306 304 265 285 308 309 310 314 320 318 309 308 309 308 306 309 302 291 272 262 253 246 238 236 240 237 239 242 243 237 230 234 232
291 285 291 294 296 298 301 303 306 312 318 315 310 271 294 303 311 320 316 318 319 317 316 315 315 313 311 306 300 287 272 263 249 253 250 252 250 250 243 244 239 235 234 235
280 295 302 297 297 298 298 301 306 306 311 311 309 282 308 334 320 325 319 319 325 324 318 312 309 309 309 307 303 293 280 266 261 257 262 263 258 259 250 243 240 235 234 234
284 285 283 287 288 293 294 303 304 306 310 307 322 301 282 320 323 322 326 326 323 318 316 313 309 306 303 300 299 296 291 280 269 256 253 251 252 252 252 247 245 242 239 235
286 287 286 286 289 288 294 303 306 306 305 307 307 302 295 305 309 316 320 319 319 318 317 316 314 310 307 306 301 295 292 285 274 265 258 254 254 256 254 247 243 241 240 237
279 292 291 292 299 295 305 304 305 304 304 299 304 293 290 307 314 319 321 321 320 319 318 317 317 314 311 307 303 299 291 286 274 266 261 259 256 251 249 246 243 242 240 240
278 281 292 292 290 296 295 300 303 301 297 298 308 299 292 305 312 316 317 321 322 321 320 318 316 314 314 310 307 304 296 287 277 269 263 259 258 253 248 243 242 240 239 240
274 283 282 294 289 295 297 296 296 297 298 300 302 298 300 310 313 317 320 321 322 321 321 319 318 316 313 311 308 305 300 291 280 270 265 262 259 256 252 243 242 241 239 239
281 284 297 297 297 298 298 296 305 299 298 297 297 299 299 295 315 315 318 321 321 321 319 318 317 317 316 313 310 307 303 297 285 272 267 262 257 254 252 247 243 245 242 239
285 285 286 293 301 303 299 309 301 301 300 298 300 302 302 307 313 316 318 319 319 320 319 316 316 316 316 317 316 309 305 300 292 280 266 259 256 253 251 249 243 241 240 237
287 286 286 292 292 294 297 298 301 302 297 298 299 298 311 313 315 313 314 314 316 317 318 317 314 312 312 313 315 313 309 307 300 289 269 257 251 252 249 245 242 234 234 231
290 290 285 289 298 299 297 299 299 298 301 301 302 297 309 311 315 316 317 316 315 315 316 318 320 315 306 310 317 318 313 315 304 291 265 257 253 249 243 242 237 229 228 228
285 287 288 291 299 301 301 302 304 305 305 299 299 302 314 314 314 315 317 319 319 319 317 313 311 315 307 309 314 313 310 314 308 287 274 261 254 246 241 235 229 226 221 218
286 287 286 287 298 302 300 302 301 301 301 302 298 304 308 312 314 316 318 319 319 318 317 314 304 311 315 309 307 295 297 307 308 295 277 259 250 245 239 233 227 222 218 215
288 289 290 292 298 300 299 299 298 297 299 299 304 304 308 313 315 316 318 316 316 316 315 312 298 301 308 313 309 296 306 268 277 309 281 262 252 243 235 225 222 218 214 212
292 294 297 295 299 298 297 299 298 299 302 301 303 304 313 316 315 316 317 318 317 316 316 309 298 296 301 304 305 297 308 322 208 42 282 270 257 240 236 225 214 207 204 199
293 295 299 297 301 303 299 301 300 303 305 308 307 312 319 316 318 320 321 321 319 316 314 304 294 292 297 300 305 298 310 330 333 167 290 303 284 242 234 212 203 200 193 196
297 295 299 301 305 298 308 314 314 309 310 314 312 314 317 320 323 324 324 324 317 309 306 300 293 287 292 300 300 309 317 331 314 351 65 32 281 254 229 212 211 204 199 196
301 299 302 300 299 304 308 307 306 311 312 315 315 321 325 329 330 330 323 301 285 288 295 296 288 278 282 283 293 307 308 310 318 324 333 56 91 92 139 179 197 210 202 192
297 299 299 302 302 304 320 326 323 324 313 327 334 329 328 330 323 323 303 304 298 300 289 286 290 277 276 279 285 296 307 297 301 314 329 95 99 104 125 137 136 137 139 171
294 295 291 295 299 307 314 313 319 308 316 331 329 328 329 328 317 284 293 297 307 298 320 301 290 284 287 285 288 287 293 295 295 308 317 309 123 127 135 142 160 163 150 150
296 298 300 299 298 301 316 313 301 314 323 325 325 325 325 319 293 289 298 305 303 304 305 310 300 295 294 295 293 291 276 292 283 289 282 284 199 171 151 175 192 193 177 181
296 297 304 299 303 308 315 308 317 314 314 319 320 321 321 294 283 285 295 301 298 302 309 306 312 300 302 308 298 291 280 284 287 275 262 263 188 168 170 171 188 195 206 209
303 308 303 304 306 298 296 299 306 310 310 316 318 317 295 279 282 286 297 298 297 305 303 303 295 297 295 303 290 295 287 284 273 249 238 231 218 204 188 184 187 205 212 226
306 312 306 300 304 308 305 306 308 310 312 315 316 300 277 274 277 282 285 289 290 302 308 310 305 298 288 320 322 309 275 319 274 250 242 228 206 207 213 249 239 240 241 223
304 297 297 300 310 310 309 312 313 311 310 307 311 274 269 270 269 275 277 273 267 289 299 308 301 306 315 320 315 294 282 286 292 263 279 254 268 273 267 264 270 279 266 268